Regional Weather Roundup
Issued by NWS

Home | Current Version | Previous Version | Text Only | Print | Product List | Glossary Off
Versions: 1 2 3 4 5 6 7 8 9 10 11 12 13 14 15 16 17 18 19 20 21 22 23 24 25 26 27 28 29 30 31 32 33 34 35 36 37 38 39 40 41 42 43 44 45 46 47 48 49 50

000
ASUS43 KMPX 050410
RWRMN
WEATHER ROUNDUP FOR MINNESOTA
NATIONAL WEATHER SERVICE TWIN CITIES/CHANHASSEN MN
1100 PM CDT TUE AUG 04 2015


NOTE: "FAIR" INDICATES FEW OR NO CLOUDS BELOW 12,000 FEET WITH NO
SIGNIFICANT WEATHER AND/OR OBSTRUCTIONS TO VISIBILITY. N/A MEANS
CURRENT SKY AND/OR WEATHER CONDITIONS ARE NOT AVAILABLE.

MNZ060>063-068>070-050500-
   Twin Cities Metro

CITY           SKY/WX    TMP DP  RH WIND       PRES   REMARKS
TWIN CITIES    PTCLDY    73  53  49 W3        30.01S
ST PAUL        PTCLDY    68  57  68 CALM      30.02R
CRYSTAL        PTCLDY    70  54  56 CALM      30.01R
BLAINE         CLEAR     64  57  77 CALM      30.02S
LAKEVILLE      CLEAR     61  55  82 CALM      30.03R
EDEN PRAIRIE   CLEAR     68  55  63 W3        30.01R
SOUTH ST PAUL  CLEAR     70  55  59 NE3       30.01S
LAKE ELMO      MOCLDY    61  57  88 CALM      30.04R
$$
MNZ001>005-007-008-013>017-022>024-027-028-050500-
   Northwest Minnesota

CITY           SKY/WX    TMP DP  RH WIND       PRES   REMARKS
BEMIDJI        CLEAR     55  51  86 CALM      30.07R
HALLOCK        CLEAR     59  55  88 NE6       30.05R
ROSEAU         CLEAR     57  52  82 SE5       30.06R
WARROAD        CLEAR     57  54  88 CALM      30.07R
THIEF RVR FALL CLEAR     63  52  67 E8        30.06R
CROOKSTON      CLEAR     64  54  68 E5        30.04S
FOSSTON        CLEAR     54  46  76 CALM      30.06S
DETROIT LAKES  CLEAR     63  57  82 CALM      30.06S
MOORHEAD       CLEAR     63  55  77 CALM      30.03S
PARK RAPIDS    CLEAR     64  53  67 CALM      30.06R
MAHNOMEN       FAIR      58  55  88 E5        30.04S
$$
MNZ006-009>011-018-025>026-050500-
   North Central Minnesota

CITY           SKY/WX    TMP DP  RH WIND       PRES   REMARKS
BAUDETTE       CLEAR     56  51  84 SW3       30.07R
FLAG ISLAND    CLEAR     63  54  72 E3        30.05R
INTL FALLS     CLEAR     47  46  97 CALM      30.07R
WASKISH        CLEAR     52  50  93 CALM      30.08R
BIG FORK       CLEAR     48  46  93 CALM      30.08S
LONGVILLE      CLEAR     55  54  94 CALM      30.06R
GRAND RAPIDS   CLEAR     55  48  76 CALM      30.08R
CRANE LAKE     MOCLDY    52  52 100 CALM      30.08R
ORR            CLEAR     48  46  93 CALM      30.05S
COOK           CLEAR     48  48 100 CALM      30.08R
WALKER         FAIR      59  51  77 N3        30.06R
$$
MNZ012-019>021-037-050500-
   Northeast Minnesota

CITY           SKY/WX    TMP DP  RH WIND       PRES   REMARKS
DULUTH         PTCLDY    56  48  74 E5        30.07R
ELY            MOCLDY    54  52  94 CALM      30.07S
HIBBING        CLEAR     49  46  90 CALM      30.08R
EVELETH        CLEAR     50  46  87 CALM      30.09R
DULUTH HARBOR  CLEAR     54  50  87 N9        30.06R
TWO HARBORS    MOCLDY    55  52  88 N3        30.06R
SILVER BAY     CLEAR     50  46  87 CALM      30.06R
GRAND MARAIS     N/A     48  46  93 CALM      30.05R
G MARAIS ARPRT CLEAR     50  46  87 CALM      30.07R
$$
MNZ029>031-032-039>041-046>048-054>057-064-050500-
   West Central Minnesota

CITY           SKY/WX    TMP DP  RH WIND       PRES   REMARKS
FERGUS FALLS   CLEAR     63  54  72 E5        30.03R
WHEATON        CLEAR     57  54  88 E5        30.04R
MORRIS         CLEAR     63  54  72 E5        30.02R
ALEXANDRIA     CLEAR     63  57  81 CALM      30.06R
ELBOW LAKE     FAIR      67  54  62 E7        30.02F
WADENA         CLEAR     59  52  77 NE3       30.05R
GLENWOOD       CLEAR     64  55  72 N5        30.05R
APPLETON       PTCLDY    63  57  82 CALM      30.02R
BENSON         CLEAR     59  54  82 CALM      30.03R
ORTONVILLE     PTCLDY    66  55  68 SE5       30.02R
MADISON        PTCLDY    61  55  82 CALM      30.02S
WILLMAR        FAIR      61  57  88 CALM      30.05R
$$
MNZ033>034-036-042>043-049>051-058-059-050500-
   Central Minnesota

CITY           SKY/WX    TMP DP  RH WIND       PRES   REMARKS
ST CLOUD       CLEAR     59  56  89 CALM      30.03R
SAUK CENTRE    FAIR      58  56  91 CALM      30.04S
PAYNESVILLE    CLEAR     57  55  90 CALM      30.04S
AITKIN         CLEAR     54  48  82 CALM      30.04R
PINE RIVER     CLEAR     55  52  88 CALM      30.09R
BRAINERD       CLEAR     58  52  80 CALM      30.05R
STAPLES        CLEAR     61  54  77 CALM      30.05S
LONG PRAIRIE   FAIR      61  54  77 N3        30.05R
LITCHFIELD     CLEAR     64  59  82 CALM      30.04R
BUFFALO        CLEAR     64  57  78 N6        30.03S
$$
MNZ037-044-045-052-053-050500-
   East Central Minnesota

CITY           SKY/WX    TMP DP  RH WIND       PRES   REMARKS
PRINCETON      CLEAR     61  57  88 CALM      30.03S
MORA           CLEAR     55  54  94 CALM      30.05S
CAMBRIDGE      CLEAR     63  54  72 CALM      30.02R
RUSH CITY      PTCLDY    57  54  90 CALM      30.04R
MOOSE LAKE     CLEAR     59  52  77 NE3       30.04R
HINCKLEY       FAIR      55  55 100 CALM      30.04S
CLOQUET        CLEAR     59  48  67 NE5       30.07R
MCGREGOR       CLEAR     59  54  82 N3        30.06R
$$
MNZ071>073-080-081-089-090-097-098-050500-
   Southwest Minnesota

CITY           SKY/WX    TMP DP  RH WIND       PRES   REMARKS
MONTEVIDEO     PTCLDY    63  55  77 S3        30.04S
GRANITE FALLS  PTCLDY    59  56  89 CALM      30.04S
CANBY          PTCLDY    62  56  81 CALM      30.04R
MARSHALL       PTCLDY    63  55  77 CALM      30.05R
REDWOOD FALLS  PTCLDY    68  55  63 CALM      30.03R
OLIVIA         PTCLDY    61  54  77 CALM      30.03R
PIPESTONE      PTCLDY    64  57  77 SE3       30.05R
WINDOM         PTCLDY    61  55  82 CALM      30.05R
WORTHINGTON    PTCLDY    61  55  82 E3        30.05R
JACKSON        PTCLDY    63  55  77 SE5       30.05R
TRACY          PTCLDY    66  57  72 S5        30.04S
SLAYTON        PTCLDY    62  57  83 CALM      30.05S
$$
MNZ065>067-074>077-082>085-091>093-050500-
   South Central Minnesota

CITY           SKY/WX    TMP DP  RH WIND       PRES   REMARKS
MANKATO        CLEAR     68  50  52 S7        30.03S
NEW ULM        PTCLDY    64  54  68 S3        30.03S
ST JAMES       PTCLDY    63  57  82 SE3       30.05S
FAIRMONT       PTCLDY    63  54  72 CALM      30.04R
GLENCOE        CLEAR     62  58  88 CALM      30.03R
FARIBAULT      CLEAR     61  55  82 CALM      30.04S
OWATONNA       CLEAR     61  52  72 CALM      30.04S
WASECA         CLEAR     55  54  94 CALM      30.05S
ALBERT LEA     CLEAR     59  57  94 CALM      30.05S
$$
MNZ078>079-086>088-094>096-050500-
   Southeast Minnesota

CITY           SKY/WX    TMP DP  RH WIND       PRES   REMARKS
ROCHESTER      CLEAR     59  54  83 SW7       30.06S
RED WING       CLEAR     63  59  88 CALM      30.01S
STANTON        FAIR      63  56  78 S3        30.02R
DODGE CENTER   PTCLDY    57  54  88 CALM      30.05S
WINONA         CLEAR     63  59  88 CALM      30.02F
AUSTIN         CLEAR     63  57  82 CALM      30.04F
PRESTON        CLEAR     62  55  80 SW6       30.06S
$$
ABBREVIATIONS USED IN REMARKS
   TC - TEMPERATURES IN CELSIUS
  WCI - WIND CHILL INDEX
   HX - HEAT INDEX
  VSB - VISIBILITY
$$


USA.gov is the U.S. government's official web portal to all federal, state and local government web resources and services.